Location: Stilling
(56.0622°N, 9.9882°E)
Time: 13:17:28
(UTC+00:00)

Nadezhda 3 Rocket - Pass Details

Date: 13 July 2020
Orbit: 957 x 999 km, 82.9° (Epoch: 06 August)

Event Time Altitude Azimuth Distance (km) Brightness Sun altitude
Rises 21:12:53 0° 347° (NNW) 3,735 8.7 -7.3°
Reaches altitude 10° 21:15:26 10° 345° (NNW) 2,778 7.9 -7.5°
Maximum altitude 21:21:45 67° 265° (W) 1,073 4.4 -8.0°
Drops below altitude 10° 21:27:58 10° 184° (S) 2,737 5.8 -8.4°
Enters shadow 21:29:04 - 183° (S) 3,143 6.1 -8.4°
